Time[GMT],current_speed[cm/s](2m),current_direction[angular_degrees](2m),temperature[C](2m),current_u[cm/s](2m),current_v[cm/s](2m),signal_strength[db](2m),tilt[degrees](2m)
2021-11-04 19:00,16.67,96.6,12.32,16.56,-1.92,-23.20,2.85
2021-11-04 20:00,1.81,91.0,12.18,1.80,-0.03,-22.80,2.41
2021-11-04 21:00,1.18,256.0,12.06,-1.14,-0.29,-22.14,4.13
2021-11-04 22:00,3.61,323.2,12.10,-2.17,2.89,-23.23,2.29
2021-11-04 23:00,6.24,320.2,12.10,-3.99,4.79,-25.38,3.48
2021-11-05 00:00,9.44,328.7,12.12,-4.90,8.07,-25.22,3.07
2021-11-05 01:00,13.51,328.0,12.09,-7.16,11.46,-25.12,3.46
2021-11-05 02:00,13.69,311.1,12.10,-10.31,9.01,-26.19,3.22
2021-11-05 03:00,9.31,321.6,12.02,-5.78,7.30,-25.43,2.58
2021-11-05 04:00,7.26,259.9,11.80,-7.14,-1.28,-24.36,2.77
2021-11-05 05:00,3.65,226.2,11.81,-2.64,-2.53,-23.67,1.76
2021-11-05 06:00,1.30,207.5,11.75,-0.60,-1.16,-23.27,3.89
2021-11-05 07:00,5.15,197.4,11.73,-1.54,-4.92,-24.11,4.58
2021-11-05 08:00,13.39,238.0,11.63,-11.36,-7.10,-23.05,4.32
2021-11-05 09:00,14.89,242.0,11.63,-13.15,-6.99,-20.31,6.61
2021-11-05 10:00,16.67,251.8,11.66,-15.84,-5.19,-24.08,6.04
2021-11-05 11:00,18.00,247.2,11.63,-16.60,-6.98,-23.04,9.16
2021-11-05 12:00,21.98,258.6,11.56,-21.55,-4.35,-23.64,6.19
2021-11-05 13:00,24.00,245.1,11.71,-21.77,-10.10,-19.93,7.63
2021-11-05 14:00,21.55,249.0,11.83,-20.11,-7.73,-21.11,8.65
2021-11-05 15:00,23.14,218.7,11.86,-14.47,-18.06,-23.21,7.62
2021-11-05 16:00,22.95,227.9,11.95,-17.03,-15.38,-25.58,7.76
2021-11-05 17:00,20.96,228.1,12.06,-15.60,-14.00,-24.12,5.38
2021-11-05 18:00,16.86,206.2,12.14,-7.46,-15.13,-23.92,7.10
2021-11-05 19:00,18.19,205.1,12.14,-7.70,-16.47,-22.74,6.92
2021-11-05 20:00,14.10,212.1,12.09,-7.50,-11.94,-22.50,6.70
2021-11-05 21:00,10.11,231.7,12.09,-7.94,-6.27,-22.93,4.43
2021-11-05 22:00,10.00,241.3,12.11,-8.77,-4.80,-23.75,4.58
2021-11-05 23:00,9.34,279.9,12.11,-9.20,1.61,-24.23,5.08
2021-11-06 00:00,7.22,273.1,12.12,-7.21,0.39,-23.30,5.61
2021-11-06 01:00,6.88,282.9,12.14,-6.71,1.54,-25.36,4.23
2021-11-06 02:00,9.70,277.0,12.14,-9.63,1.17,-25.57,3.50
2021-11-06 03:00,8.91,240.5,12.13,-7.75,-4.39,-25.21,3.13
2021-11-06 04:00,6.66,202.9,12.11,-2.59,-6.14,-26.92,3.07
2021-11-06 05:00,9.52,185.8,12.06,-0.95,-9.47,-27.33,3.49
2021-11-06 06:00,9.77,139.2,12.09,6.39,-7.39,-25.68,4.28
2021-11-06 07:00,14.70,148.1,12.01,7.77,-12.48,-26.25,4.40
2021-11-06 08:00,11.32,152.9,11.99,5.16,-10.08,-25.97,5.00
2021-11-06 09:00,10.73,185.7,11.99,-1.06,-10.68,-26.15,2.13
2021-11-06 10:00,5.68,196.2,12.04,-1.59,-5.45,-27.21,3.37
2021-11-06 11:00,4.72,246.5,12.00,-4.33,-1.89,-25.84,1.85
2021-11-06 12:00,8.02,238.9,11.99,-6.87,-4.15,-26.32,2.86
2021-11-06 13:00,8.56,244.2,12.00,-7.70,-3.73,-26.50,2.68
2021-11-06 14:00,9.65,219.4,12.04,-6.12,-7.46,-25.73,2.82
2021-11-06 15:00,13.25,210.2,12.17,-6.67,-11.45,-26.56,3.41
2021-11-06 16:00,19.59,186.8,12.03,-2.32,-19.45,-24.23,4.07
2021-11-06 17:00,18.01,190.0,12.15,-3.12,-17.73,-23.61,3.39
2021-11-06 18:00,13.86,194.7,12.26,-3.51,-13.41,-22.89,2.82
2021-11-06 19:00,13.12,177.7,12.28,0.53,-13.11,-22.21,2.31
2021-11-06 20:00,17.33,172.8,12.14,2.17,-17.19,-24.75,2.50
2021-11-06 21:00,10.99,168.3,12.07,2.23,-10.77,-22.18,4.06
2021-11-06 22:00,2.33,156.2,11.94,0.94,-2.13,-19.87,6.15
2021-11-06 23:00,7.36,123.3,11.92,6.15,-4.03,-22.68,7.00
2021-11-07 00:00,7.53,100.0,11.88,7.41,-1.31,-25.10,7.85
2021-11-07 01:00,7.74,117.6,11.92,6.86,-3.58,-25.53,6.69
2021-11-07 02:00,8.08,143.3,11.91,4.83,-6.48,-21.46,7.05
2021-11-07 03:00,7.85,148.7,11.96,4.07,-6.71,-15.52,7.65
2021-11-07 04:00,11.10,147.3,11.92,6.00,-9.34,-24.02,5.74
2021-11-07 05:00,16.30,169.7,11.89,2.91,-16.04,-26.54,5.41
2021-11-07 06:00,21.66,161.3,11.88,6.96,-20.51,-26.98,5.72
2021-11-07 07:00,21.64,162.3,11.75,6.58,-20.61,-29.08,4.56
2021-11-07 08:00,24.60,169.2,11.70,4.59,-24.16,-29.78,5.46
2021-11-07 09:00,22.34,166.9,11.72,5.06,-21.76,-27.58,5.44
2021-11-07 10:00,14.99,185.9,11.71,-1.54,-14.91,-28.40,3.88
2021-11-07 11:00,14.29,203.2,11.74,-5.63,-13.13,-28.59,3.93
2021-11-07 12:00,10.67,230.8,11.74,-8.27,-6.75,-27.21,3.79
2021-11-07 13:00,11.64,249.4,11.78,-10.90,-4.09,-26.22,3.49
2021-11-07 14:00,15.16,255.9,11.77,-14.70,-3.70,-27.25,3.18
2021-11-07 15:00,20.38,245.6,11.79,-18.55,-8.43,-25.90,4.34
2021-11-07 16:00,22.73,253.1,11.90,-21.76,-6.59,-23.01,4.71
2021-11-07 17:00,11.96,242.8,12.04,-10.64,-5.47,-24.81,3.38
2021-11-07 18:00,8.59,241.8,12.23,-7.57,-4.05,-25.30,3.41
2021-11-07 19:00,2.08,265.5,12.20,-2.08,-0.16,-23.78,3.17
2021-11-07 20:00,9.32,157.7,12.19,3.54,-8.63,-25.36,2.75
2021-11-07 21:00,14.70,136.6,12.07,10.11,-10.68,-22.91,3.32
2021-11-07 22:00,14.78,129.1,12.00,11.47,-9.32,-26.51,2.67
2021-11-07 23:00,14.83,119.9,11.91,12.85,-7.40,-24.35,2.06
2021-11-08 00:00,11.83,156.8,11.88,4.65,-10.88,-25.06,2.49
2021-11-08 01:00,12.50,177.2,11.76,0.61,-12.49,-24.42,2.75
2021-11-08 02:00,14.64,204.4,11.70,-6.05,-13.34,-24.60,3.09
2021-11-08 03:00,19.58,209.8,11.77,-9.72,-17.00,-23.48,3.27
2021-11-08 04:00,17.14,224.2,11.98,-11.95,-12.28,-24.32,3.20
2021-11-08 05:00,13.08,264.3,12.02,-13.02,-1.30,-26.00,1.82
2021-11-08 06:00,8.69,268.6,12.08,-8.69,-0.21,-26.52,2.13
2021-11-08 07:00,9.05,238.1,12.10,-7.68,-4.78,-27.77,2.63
2021-11-08 08:00,8.23,228.4,12.03,-6.16,-5.46,-26.33,3.28
2021-11-08 09:00,14.32,218.5,12.03,-8.92,-11.20,-26.80,3.71
2021-11-08 10:00,13.97,242.0,11.93,-12.34,-6.55,-24.27,5.25
2021-11-08 11:00,21.28,217.4,11.80,-12.91,-16.91,-23.92,5.83
2021-11-08 12:00,20.87,227.4,11.92,-15.35,-14.14,-24.68,6.19
2021-11-08 13:00,13.23,271.2,12.01,-13.22,0.29,-23.12,4.27
2021-11-08 14:00,10.70,263.3,12.02,-10.63,-1.25,-24.75,6.09
2021-11-08 15:00,15.40,256.1,12.05,-14.95,-3.71,-25.94,5.16
2021-11-08 16:00,11.78,258.1,12.11,-11.53,-2.42,-26.99,3.40
2021-11-08 17:00,15.53,266.5,12.12,-15.50,-0.94,-25.29,4.15
2021-11-08 18:00,11.37,267.7,12.14,-11.36,-0.46,-23.81,3.41
2021-11-08 19:00,4.17,246.7,12.19,-3.83,-1.65,-23.55,3.26
2021-11-08 20:00,1.09,123.4,12.12,0.91,-0.60,-21.78,2.91
2021-11-08 21:00,6.46,108.4,12.20,6.13,-2.04,-23.67,3.06
2021-11-08 22:00,8.46,68.2,12.13,7.86,3.14,-21.67,3.05
2021-11-08 23:00,10.60,88.7,12.17,10.60,0.24,-22.55,2.67
2021-11-09 00:00,7.14,199.6,12.20,-2.40,-6.72,-24.95,2.71
2021-11-09 01:00,12.50,179.1,12.02,0.20,-12.49,-24.43,3.60
2021-11-09 02:00,11.40,187.3,11.94,-1.44,-11.31,-23.94,3.19
2021-11-09 03:00,12.32,214.9,11.95,-7.05,-10.11,-25.01,3.48
2021-11-09 04:00,14.37,250.6,12.04,-13.55,-4.77,-25.65,3.44
2021-11-09 05:00,10.40,295.0,12.15,-9.43,4.40,-24.96,4.17
2021-11-09 06:00,8.87,303.3,11.97,-7.41,4.87,-24.44,4.00
2021-11-09 07:00,3.91,270.8,11.97,-3.91,0.06,-23.63,2.99
2021-11-09 08:00,5.90,148.1,11.94,3.12,-5.01,-24.27,4.12
2021-11-09 09:00,23.44,174.3,11.67,2.33,-23.32,-23.62,3.18
2021-11-09 10:00,25.56,175.0,11.56,2.23,-25.46,-22.90,4.34
2021-11-09 11:00,20.53,165.8,11.58,5.05,-19.90,-22.40,4.67
2021-11-09 12:00,16.31,193.3,11.49,-3.75,-15.88,-22.89,3.95
2021-11-09 13:00,16.77,197.1,11.47,-4.94,-16.03,-21.14,3.83
2021-11-09 14:00,9.63,231.5,11.69,-7.54,-6.00,-22.54,3.71
2021-11-09 15:00,2.71,200.9,11.74,-0.96,-2.53,-21.55,4.82
2021-11-09 16:00,3.89,166.2,11.81,0.93,-3.78,-22.47,3.77
2021-11-09 17:00,8.51,170.4,11.89,1.42,-8.39,-24.91,4.11
2021-11-09 18:00,10.99,181.2,11.95,-0.23,-10.99,-19.96,3.62
2021-11-09 19:00,11.00,176.4,11.95,0.69,-10.98,-18.99,3.49
2021-11-09 20:00,9.68,151.9,11.94,4.56,-8.53,-20.65,3.42
2021-11-09 21:00,7.99,185.1,12.06,-0.71,-7.96,-20.65,2.95
2021-11-09 22:00,23.98,164.4,12.02,6.46,-23.09,-19.97,4.22
2021-11-09 23:00,24.11,182.4,11.79,-1.03,-24.09,-20.65,4.39
2021-11-10 00:00,20.11,188.4,11.80,-2.92,-19.90,-20.40,4.63
2021-11-10 01:00,17.77,196.2,11.77,-4.95,-17.07,-20.49,4.60
2021-11-10 02:00,13.78,206.5,11.92,-6.14,-12.34,-21.51,3.77
2021-11-10 03:00,11.40,236.4,12.05,-9.50,-6.30,-23.56,3.34
2021-11-10 04:00,9.16,308.9,12.00,-7.14,5.75,-22.62,2.57
2021-11-10 05:00,13.76,311.9,11.98,-10.24,9.19,-24.10,2.57
2021-11-10 06:00,11.20,321.1,12.02,-7.02,8.72,-25.50,2.09
2021-11-10 07:00,8.21,335.6,12.05,-3.40,7.48,-23.72,4.66
2021-11-10 08:00,2.88,187.8,12.05,-0.39,-2.85,-22.77,7.60
2021-11-10 09:00,4.67,234.0,12.04,-3.78,-2.75,-20.07,6.51
2021-11-10 10:00,5.54,206.7,12.04,-2.49,-4.95,-20.65,7.89
2021-11-10 11:00,8.43,221.2,12.03,-5.56,-6.34,-17.59,8.39
2021-11-10 12:00,7.27,220.7,11.97,-4.74,-5.51,-18.23,9.76
2021-11-10 13:00,14.16,227.6,11.96,-10.46,-9.54,-21.47,7.74
2021-11-10 14:00,13.43,241.1,11.97,-11.75,-6.49,-22.16,6.94
2021-11-10 15:00,9.04,288.7,11.97,-8.57,2.90,-24.38,5.84
2021-11-10 16:00,9.46,303.5,11.97,-7.88,5.22,-23.89,5.02
2021-11-10 17:00,8.16,285.8,12.00,-7.85,2.22,-24.11,5.28
2021-11-10 18:00,10.09,251.9,12.03,-9.60,-3.13,-23.11,4.96
2021-11-10 19:00,6.95,279.0,12.03,-6.86,1.08,-22.58,4.07
2021-11-10 20:00,10.69,357.8,12.02,-0.42,10.69,-19.93,3.69
2021-11-10 21:00,8.82,74.2,11.99,8.49,2.41,-17.96,6.76
2021-11-10 22:00,5.35,178.1,12.02,0.18,-5.35,-19.97,6.11
2021-11-10 23:00,11.17,172.4,11.98,1.48,-11.07,-18.58,6.58
2021-11-11 00:00,26.14,158.2,11.77,9.73,-24.26,-23.77,6.53
2021-11-11 01:00,21.33,182.1,11.63,-0.78,-21.31,-22.87,6.33
2021-11-11 02:00,18.07,201.4,11.70,-6.59,-16.82,-24.07,4.80
2021-11-11 03:00,18.11,204.0,11.68,-7.37,-16.54,-22.75,6.19
2021-11-11 04:00,14.65,217.5,11.68,-8.91,-11.63,-23.59,5.97
2021-11-11 05:00,18.63,222.6,11.53,-12.62,-13.70,-22.91,5.11
2021-11-11 06:00,20.62,232.6,11.37,-16.39,-12.52,-20.57,5.83
2021-11-11 07:00,21.74,256.8,11.29,-21.17,-4.95,-22.23,4.32
2021-11-11 08:00,13.15,249.5,11.30,-12.31,-4.61,-19.29,5.54
2021-11-11 09:00,10.88,219.4,11.29,-6.91,-8.41,-22.17,6.05
2021-11-11 10:00,9.09,226.2,11.32,-6.56,-6.30,-19.96,5.47
2021-11-11 11:00,7.98,233.2,11.31,-6.39,-4.78,-21.06,4.67
2021-11-11 12:00,5.74,203.8,11.28,-2.32,-5.25,-22.95,4.36
2021-11-11 13:00,15.24,222.5,11.19,-10.29,-11.24,-24.30,4.82
2021-11-11 14:00,9.12,240.0,11.22,-7.90,-4.56,-23.73,3.31
2021-11-11 15:00,6.70,243.0,11.28,-5.97,-3.05,-23.91,3.31
2021-11-11 16:00,8.32,269.3,11.32,-8.32,-0.10,-23.07,3.68
2021-11-11 17:00,16.75,281.3,11.39,-16.43,3.29,-21.92,3.26
2021-11-11 18:00,19.92,287.1,11.46,-19.05,5.84,-21.54,4.84
2021-11-11 19:00,18.94,290.1,11.54,-17.79,6.49,-20.16,4.94
2021-11-11 20:00,17.69,301.3,11.52,-15.12,9.18,-19.02,5.41
2021-11-11 21:00,5.94,300.3,11.52,-5.13,3.00,-18.25,4.84
2021-11-11 22:00,9.94,297.6,11.50,-8.81,4.60,-19.74,5.68
2021-11-11 23:00,9.40,272.4,11.49,-9.39,0.40,-18.24,5.91
2021-11-12 00:00,3.34,303.7,11.48,-2.78,1.86,-18.63,6.15
2021-11-12 01:00,4.66,312.0,11.49,-3.46,3.12,-17.64,7.75
2021-11-12 02:00,9.68,316.9,11.51,-6.62,7.06,-14.57,8.00
2021-11-12 03:00,10.78,311.8,11.56,-8.04,7.19,-17.13,8.57
2021-11-12 04:00,14.51,355.7,11.63,-1.09,14.47,-6.33,10.26
2021-11-12 05:00,15.41,332.7,11.84,-7.06,13.69,-21.83,10.72
2021-11-12 06:00,18.05,319.0,11.88,-11.84,13.62,-16.72,8.80
2021-11-12 07:00,5.74,6.1,11.91,0.61,5.71,-20.84,11.59
2021-11-12 08:00,7.73,307.8,11.90,-6.10,4.74,-19.76,8.14
2021-11-12 09:00,2.16,50.3,11.92,1.66,1.38,-17.22,8.45
2021-11-12 10:00,4.73,340.2,11.94,-1.61,4.45,-23.13,9.37
2021-11-12 11:00,2.55,48.5,11.91,1.91,1.69,-5.57,9.93
2021-11-12 12:00,12.12,302.8,11.92,-10.19,6.56,-19.07,11.48
2021-11-12 13:00,6.62,291.4,11.90,-6.17,2.41,-4.91,12.65
2021-11-12 14:00,12.19,314.6,11.72,-8.67,8.57,-3.63,13.86
2021-11-12 15:00,10.93,30.5,11.70,5.56,9.42,-2.93,15.66
2021-11-12 16:00,10.88,329.1,11.78,-5.59,9.33,-22.27,15.05
2021-11-12 17:00,26.07,3.0,11.83,1.36,26.03,-6.20,16.29
2021-11-12 18:00,21.87,343.6,11.89,-6.19,20.97,-8.23,16.19
2021-11-12 19:00,20.16,3.1,12.00,1.08,20.13,-11.31,17.64
2021-11-12 20:00,15.43,357.2,12.06,-0.76,15.41,-6.84,17.32
2021-11-12 21:00,35.37,1.9,12.11,1.16,35.35,-3.32,21.64
2021-11-12 22:00,21.39,41.1,12.17,14.07,16.11,-24.65,11.97
2021-11-12 23:00,16.17,82.2,12.16,16.02,2.20,-23.01,9.27
2021-11-13 00:00,19.01,72.4,12.22,18.12,5.75,-25.42,9.22
2021-11-13 01:00,18.97,113.9,12.19,17.34,-7.68,-26.93,8.46
2021-11-13 02:00,23.25,126.6,12.19,18.66,-13.87,-26.70,8.89
2021-11-13 03:00,25.60,147.3,12.05,13.84,-21.53,-24.80,9.08
2021-11-13 04:00,21.38,140.4,11.99,13.62,-16.48,-24.99,8.32
2021-11-13 05:00,25.43,144.6,11.91,14.71,-20.74,-25.09,6.66
2021-11-13 06:00,18.26,159.7,11.88,6.33,-17.13,-25.72,7.60
2021-11-13 07:00,20.34,173.6,11.84,2.25,-20.22,-24.65,4.97
2021-11-13 08:00,16.70,199.1,11.89,-5.47,-15.77,-25.01,4.64
2021-11-13 09:00,15.46,229.2,11.92,-11.70,-10.10,-26.05,5.24
2021-11-13 10:00,20.87,234.5,11.94,-17.00,-12.11,-26.74,5.13
2021-11-13 11:00,21.74,232.8,11.92,-17.33,-13.13,-26.40,4.76
2021-11-13 12:00,15.31,241.5,11.90,-13.46,-7.30,-25.28,4.72
2021-11-13 13:00,11.92,241.0,11.96,-10.42,-5.79,-25.22,4.58
2021-11-13 14:00,3.89,230.2,12.08,-2.99,-2.49,-25.02,3.99
2021-11-13 15:00,6.14,327.7,12.19,-3.28,5.19,-24.97,3.92
2021-11-13 16:00,7.76,43.7,12.19,5.36,5.61,-25.63,4.08
2021-11-13 17:00,8.54,52.7,12.10,6.79,5.18,-20.71,4.93
2021-11-13 18:00,8.12,34.6,12.16,4.61,6.68,-22.07,3.34
2021-11-13 19:00,6.23,35.4,12.12,3.61,5.08,-20.82,4.75
2021-11-13 20:00,8.75,42.8,12.10,5.95,6.42,-19.49,6.09
2021-11-13 21:00,4.72,357.3,12.11,-0.22,4.72,-18.99,7.94
2021-11-13 22:00,3.38,53.5,12.09,2.72,2.01,-17.74,8.11
2021-11-13 23:00,2.44,177.1,12.06,0.12,-2.43,-23.28,7.94
2021-11-14 00:00,0.93,37.2,12.02,0.56,0.74,-10.50,7.84
2021-11-14 01:00,7.29,72.9,11.99,6.97,2.14,-23.85,6.74
2021-11-14 02:00,22.03,105.9,11.94,21.19,-6.03,-13.18,10.30
2021-11-14 03:00,32.63,130.5,11.96,24.82,-21.19,-5.29,12.85
2021-11-14 04:00,22.79,132.6,11.98,16.76,-15.44,-12.48,15.06
2021-11-14 05:00,25.51,139.3,11.99,16.62,-19.35,-9.54,12.65
2021-11-14 06:00,15.74,151.0,11.98,7.63,-13.76,-14.94,10.64
2021-11-14 07:00,8.98,159.1,12.00,3.20,-8.39,-12.80,11.91
2021-11-14 08:00,18.32,149.8,12.02,9.21,-15.84,-17.43,9.42
2021-11-14 09:00,6.18,220.7,12.02,-4.03,-4.68,-17.93,8.62
2021-11-14 10:00,9.03,161.7,11.97,2.84,-8.57,-15.85,9.56
2021-11-14 11:00,8.72,182.2,11.93,-0.33,-8.71,-19.20,9.50
2021-11-14 12:00,13.36,194.8,11.82,-3.41,-12.92,-14.20,8.88
2021-11-14 13:00,5.45,150.6,11.82,2.67,-4.75,-14.34,8.03
2021-11-14 14:00,9.89,196.9,11.77,-2.88,-9.46,-17.07,9.69
2021-11-14 15:00,18.10,147.2,11.80,9.79,-15.23,-16.35,10.28
2021-11-14 16:00,8.94,149.4,11.76,4.55,-7.70,-21.91,9.71
2021-11-14 17:00,8.81,181.3,11.75,-0.21,-8.81,-22.30,8.64
2021-11-14 18:00,6.63,226.5,11.72,-4.81,-4.57,-21.61,7.60
2021-11-14 19:00,2.95,237.0,11.71,-2.48,-1.61,-25.08,5.55
2021-11-14 20:00,9.82,268.3,11.69,-9.81,-0.29,-24.03,5.56
2021-11-14 21:00,11.06,281.8,11.67,-10.83,2.27,-23.86,5.28
2021-11-14 22:00,6.88,288.2,11.62,-6.53,2.14,-24.08,5.30
2021-11-14 23:00,8.70,228.8,11.60,-6.54,-5.73,-23.59,5.29
2021-11-15 00:00,2.41,109.6,11.58,2.27,-0.81,-23.92,5.90
2021-11-15 01:00,2.55,133.2,11.58,1.86,-1.75,-23.15,6.00
2021-11-15 02:00,2.09,348.1,11.57,-0.43,2.05,-23.46,5.66
2021-11-15 03:00,3.40,112.3,11.56,3.15,-1.29,-23.84,5.41
2021-11-15 04:00,11.13,110.0,11.54,10.46,-3.81,-15.07,7.48
2021-11-15 05:00,8.26,109.4,11.57,7.79,-2.75,-23.73,6.89
2021-11-15 06:00,5.50,97.0,11.57,5.46,-0.67,-23.31,6.64
2021-11-15 07:00,8.04,321.7,11.55,-4.98,6.31,-18.49,6.13
2021-11-15 08:00,8.42,86.6,11.54,8.40,0.50,-18.85,7.78
2021-11-15 09:00,3.55,277.8,11.52,-3.52,0.48,-22.56,7.35
2021-11-15 10:00,3.18,125.8,11.52,2.58,-1.86,-19.03,8.46
2021-11-15 11:00,7.39,147.5,11.53,3.97,-6.23,-23.86,6.66
2021-11-15 12:00,7.12,187.5,11.49,-0.93,-7.06,-15.69,6.17
2021-11-15 13:00,14.52,155.2,11.47,6.08,-13.18,-20.80,8.19
2021-11-15 14:00,19.79,175.0,11.44,1.73,-19.72,-22.28,6.36
2021-11-15 15:00,18.01,175.8,11.40,1.33,-17.96,-23.56,5.75
2021-11-15 16:00,17.70,185.3,11.36,-1.63,-17.62,-21.55,5.34
2021-11-15 17:00,13.02,175.0,11.28,1.12,-12.98,-19.80,9.03
2021-11-15 18:00,15.82,204.2,11.19,-6.48,-14.43,-21.19,6.67
2021-11-15 19:00,9.61,225.5,11.14,-6.85,-6.73,-7.31,7.72
2021-11-15 20:00,4.08,230.7,11.13,-3.15,-2.58,-18.10,7.30
2021-11-15 21:00,6.09,175.3,11.10,0.50,-6.07,-13.60,7.89
2021-11-15 22:00,9.08,170.3,11.08,1.53,-8.95,-18.73,9.89
2021-11-15 23:00,5.08,254.4,11.07,-4.89,-1.36,-9.32,10.20
2021-11-16 00:00,9.29,146.0,11.06,5.19,-7.71,-16.14,9.02
2021-11-16 01:00,19.81,133.3,11.07,14.41,-13.59,-19.11,9.40
2021-11-16 02:00,21.02,135.7,11.07,14.68,-15.04,-13.94,9.50
2021-11-16 03:00,24.32,149.3,11.07,12.43,-20.90,-12.74,11.55
2021-11-16 04:00,17.51,149.5,11.04,8.90,-15.08,-20.07,10.32
2021-11-16 05:00,17.76,159.0,11.01,6.35,-16.59,-13.17,12.32
2021-11-16 06:00,14.18,176.1,10.99,0.96,-14.14,-20.45,9.25
2021-11-16 07:00,10.82,135.0,11.00,7.65,-7.66,-20.32,10.93
2021-11-16 08:00,8.04,127.2,10.97,6.41,-4.86,-14.04,11.44
2021-11-16 09:00,5.21,168.1,10.93,1.07,-5.10,-17.19,10.00
2021-11-16 10:00,1.76,175.5,10.91,0.14,-1.76,-13.56,8.54
2021-11-16 11:00,9.75,186.5,10.92,-1.10,-9.68,-15.67,10.11
2021-11-16 12:00,7.38,227.1,10.91,-5.41,-5.02,-22.52,9.14
2021-11-16 13:00,7.90,206.0,10.94,-3.46,-7.10,-19.86,8.44
2021-11-16 14:00,8.22,221.1,10.98,-5.40,-6.19,-18.16,8.35
2021-11-16 15:00,11.95,159.5,10.98,4.19,-11.19,-15.97,10.74
2021-11-16 16:00,17.71,139.6,11.00,11.47,-13.49,-12.32,8.35
2021-11-16 17:00,12.86,169.5,11.02,2.35,-12.64,-22.93,7.25
2021-11-16 18:00,20.84,154.1,11.00,9.10,-18.74,-17.80,10.16
2021-11-16 19:00,11.18,140.5,11.00,7.11,-8.63,-18.14,11.21
2021-11-16 20:00,5.22,185.8,11.01,-0.52,-5.19,-21.80,11.27
2021-11-16 21:00,5.27,74.1,11.01,5.06,1.45,-20.46,10.01
2021-11-16 22:00,14.10,108.3,10.99,13.38,-4.44,-11.69,10.21
2021-11-16 23:00,9.02,167.3,10.98,1.99,-8.80,-15.26,10.14
2021-11-17 00:00,9.21,123.5,11.00,7.68,-5.08,-14.49,12.55
2021-11-17 01:00,14.18,223.0,11.00,-9.67,-10.36,-23.74,8.74
2021-11-17 02:00,10.34,200.0,10.95,-3.53,-9.72,-16.08,6.91
2021-11-17 03:00,13.98,186.8,10.97,-1.65,-13.88,-16.83,9.22
2021-11-17 04:00,9.81,190.9,11.04,-1.85,-9.64,-20.10,7.35
2021-11-17 05:00,10.42,180.6,11.02,-0.10,-10.42,-22.31,5.99
2021-11-17 06:00,12.80,124.2,11.04,10.58,-7.19,-10.04,8.28
2021-11-17 07:00,6.71,113.4,11.03,6.16,-2.67,-21.51,7.58
2021-11-17 08:00,2.05,243.5,11.03,-1.83,-0.91,-25.00,7.69
2021-11-17 09:00,5.67,58.8,10.99,4.85,2.94,-21.82,6.05
2021-11-17 10:00,3.67,6.5,10.98,0.42,3.64,-16.15,8.24
2021-11-17 11:00,3.40,30.8,10.96,1.74,2.92,-21.42,6.01
2021-11-17 12:00,7.31,342.1,10.95,-2.25,6.96,-24.64,5.97
2021-11-17 13:00,5.18,255.9,10.95,-5.03,-1.26,-24.51,4.57
2021-11-17 14:00,4.48,230.5,10.94,-3.46,-2.85,-24.31,3.03
2021-11-17 15:00,5.67,214.4,10.95,-3.20,-4.68,-22.67,3.41
2021-11-17 16:00,6.02,232.6,10.97,-4.78,-3.66,-23.50,2.39
2021-11-17 17:00,7.08,235.6,10.97,-5.84,-3.99,-23.56,3.00
2021-11-17 18:00,5.47,207.3,11.00,-2.51,-4.86,-24.56,3.11
2021-11-17 19:00,0.99,248.4,10.98,-0.92,-0.36,-21.72,3.70
2021-11-17 20:00,2.95,60.9,10.97,2.58,1.44,-20.81,2.66
2021-11-17 21:00,1.83,337.0,10.96,-0.72,1.69,-20.18,4.37
2021-11-17 22:00,3.81,326.4,10.92,-2.11,3.17,-20.53,5.00
2021-11-17 23:00,4.96,291.1,10.90,-4.63,1.79,-18.72,7.61
2021-11-18 00:00,16.09,355.2,10.91,-1.34,16.03,-21.39,9.96
2021-11-18 01:00,15.77,343.6,10.93,-4.45,15.13,-14.09,8.57
2021-11-18 02:00,9.26,5.0,10.91,0.80,9.23,-14.06,10.00
2021-11-18 03:00,17.49,23.8,10.94,7.05,16.00,-16.34,9.93
2021-11-18 04:00,11.83,38.8,10.94,7.42,9.21,-17.16,10.54
2021-11-18 05:00,16.95,66.6,10.95,15.56,6.73,-17.57,8.74
2021-11-18 06:00,17.68,62.8,10.96,15.72,8.08,-21.72,8.77
2021-11-18 07:00,19.62,61.2,11.04,17.19,9.47,-22.24,9.86
2021-11-18 08:00,11.50,61.5,11.02,10.10,5.49,-21.28,8.50
2021-11-18 09:00,9.72,45.4,11.03,6.92,6.83,-25.29,6.42
2021-11-18 10:00,6.33,350.9,11.03,-1.00,6.25,-25.13,6.79
2021-11-18 11:00,4.30,342.3,11.03,-1.31,4.10,-24.56,5.57
2021-11-18 12:00,7.79,319.6,11.02,-5.05,5.93,-25.72,4.98
2021-11-18 13:00,12.38,308.7,11.03,-9.67,7.73,-25.05,5.19
2021-11-18 14:00,10.60,305.7,11.08,-8.61,6.19,-25.71,5.15
2021-11-18 15:00,4.71,287.3,11.11,-4.49,1.40,-25.19,5.65
2021-11-18 16:00,2.51,346.5,11.11,-0.59,2.44,-22.58,4.92
2021-11-18 17:00,4.53,68.1,11.14,4.20,1.69,-18.93,8.52
2021-11-18 18:00,7.43,23.5,11.17,2.96,6.81,-22.64,6.83
2021-11-18 19:00,13.33,36.4,11.15,7.91,10.73,-20.04,9.21
2021-11-18 20:00,16.23,28.0,11.17,7.62,14.33,-17.91,7.83
2021-11-18 21:00,20.57,37.6,11.14,12.54,16.30,-17.18,9.24
2021-11-18 22:00,20.98,22.9,11.09,8.17,19.32,-20.30,11.05
2021-11-18 23:00,24.87,27.6,11.08,11.54,22.03,-9.26,14.20
2021-11-19 00:00,23.66,17.8,11.10,7.24,22.53,-17.07,13.29
2021-11-19 01:00,26.48,15.0,11.12,6.86,25.57,-9.93,9.09
2021-11-19 02:00,15.25,26.3,11.15,6.76,13.67,-22.45,10.39
2021-11-19 03:00,16.41,49.2,11.28,12.42,10.73,-16.80,8.14
2021-11-19 04:00,15.64,67.4,11.40,14.44,6.01,-26.50,7.95
2021-11-19 05:00,24.30,121.0,11.54,20.82,-12.52,-16.41,8.48
2021-11-19 06:00,30.00,131.3,11.15,22.54,-19.80,-23.30,8.76
2021-11-19 07:00,23.42,143.6,11.11,13.91,-18.85,-10.12,11.06
2021-11-19 08:00,23.33,146.1,11.16,13.01,-19.37,-15.88,8.67
2021-11-19 09:00,19.63,166.5,11.15,4.59,-19.09,-24.52,5.22
2021-11-19 10:00,14.48,210.9,11.07,-7.43,-12.43,-24.75,4.51
2021-11-19 11:00,11.00,238.4,11.08,-9.37,-5.77,-24.62,6.11
2021-11-19 12:00,9.22,303.2,11.12,-7.71,5.05,-22.01,8.20
2021-11-19 13:00,11.26,293.1,11.00,-10.36,4.41,-14.92,7.62
2021-11-19 14:00,7.50,321.3,11.05,-4.69,5.85,-15.93,8.22
2021-11-19 15:00,5.14,90.8,11.04,5.14,-0.07,-14.95,8.06
2021-11-19 16:00,5.25,42.6,11.05,3.56,3.86,-15.68,9.29
2021-11-19 17:00,11.78,70.3,11.06,11.09,3.98,-12.32,10.52
2021-11-19 18:00,13.65,111.5,11.08,12.69,-5.01,-17.91,9.53
2021-11-19 19:00,21.25,90.8,11.12,21.25,-0.30,-12.87,11.28
2021-11-19 20:00,17.38,101.6,11.15,17.03,-3.49,-12.80,10.12
2021-11-19 21:00,15.01,107.8,11.17,14.29,-4.58,-12.97,10.60
2021-11-19 22:00,6.41,127.1,11.19,5.11,-3.86,-16.90,11.68
2021-11-19 23:00,6.31,135.2,11.23,4.45,-4.48,-15.27,10.08
2021-11-20 00:00,7.17,188.2,11.22,-1.02,-7.10,-11.56,9.04
2021-11-20 01:00,6.44,253.9,11.19,-6.19,-1.79,-17.19,8.08
2021-11-20 02:00,11.58,203.2,11.15,-4.56,-10.64,-20.33,6.34
2021-11-20 03:00,7.62,192.8,11.14,-1.69,-7.43,-12.08,6.89
2021-11-20 04:00,2.72,197.4,11.11,-0.81,-2.60,-19.00,9.00
2021-11-20 05:00,7.20,109.8,11.10,6.77,-2.44,-17.68,7.18
2021-11-20 06:00,1.90,119.6,11.08,1.65,-0.94,-20.65,7.84
2021-11-20 07:00,3.89,80.8,11.09,3.84,0.62,-15.74,7.75
2021-11-20 08:00,4.42,79.0,11.07,4.34,0.84,-20.58,8.57
2021-11-20 09:00,9.85,65.6,11.06,8.97,4.06,-18.33,9.47
2021-11-20 10:00,6.76,40.2,11.06,4.37,5.16,-14.99,7.52
2021-11-20 11:00,1.77,322.5,11.06,-1.07,1.40,-22.36,6.63
2021-11-20 12:00,5.63,49.7,11.07,4.30,3.64,-18.60,7.19
2021-11-20 13:00,2.69,3.5,11.05,0.16,2.68,-24.26,6.43
2021-11-20 14:00,6.01,288.2,11.05,-5.71,1.88,-24.58,5.03
2021-11-20 15:00,7.34,285.0,11.05,-7.10,1.90,-24.77,4.89
2021-11-20 16:00,4.76,237.2,11.08,-4.00,-2.58,-23.20,2.89
2021-11-20 17:00,3.95,186.5,11.12,-0.45,-3.93,-23.60,3.24
2021-11-20 18:00,5.72,162.4,11.15,1.73,-5.45,-24.72,3.26
2021-11-20 19:00,3.19,54.8,11.11,2.60,1.83,-21.26,4.70
2021-11-20 20:00,4.04,107.2,11.09,3.86,-1.19,-21.39,4.25
2021-11-20 21:00,4.37,115.7,11.06,3.94,-1.90,-22.66,4.47
2021-11-20 22:00,8.23,354.2,11.04,-0.83,8.19,-22.76,5.40
2021-11-20 23:00,9.52,8.5,11.02,1.41,9.41,-23.33,7.49
2021-11-21 00:00,13.71,4.5,11.04,1.07,13.67,-20.47,6.54
2021-11-21 01:00,16.54,331.7,11.06,-7.83,14.57,-20.85,6.79
2021-11-21 02:00,15.40,349.9,11.06,-2.71,15.16,-19.87,9.28
2021-11-21 03:00,10.68,6.6,11.03,1.23,10.61,-10.59,9.54
2021-11-21 04:00,18.75,18.3,11.05,5.87,17.80,-13.55,10.98
2021-11-21 05:00,20.92,39.3,11.06,13.24,16.19,-11.59,10.38
2021-11-21 06:00,16.88,33.0,11.12,9.20,14.15,-12.61,12.36
2021-11-21 07:00,17.18,52.4,11.13,13.62,10.47,-11.91,11.19
2021-11-21 08:00,18.94,56.1,11.18,15.72,10.57,-21.62,11.49
2021-11-21 09:00,17.83,64.9,11.25,16.14,7.57,-14.61,9.99
2021-11-21 10:00,10.07,36.6,11.31,6.01,8.08,-23.32,10.28
2021-11-21 11:00,12.16,52.1,11.30,9.59,7.47,-17.99,10.20
2021-11-21 12:00,15.74,37.0,11.37,9.48,12.57,-19.59,9.18